STARLINK-34278, 64391

Orbit data source: Space-Track

STARLINK-34278, 64391 is a payload satellite owned by SpaceX/Seattle (US) in LEO that was launched on Fri, 13 Jun 2025 UTC via an FALCON 9 launch vehicle from the Air Force Eastern Test Range (AFETR). Payload-class satellites include a variety of spacecraft equipped with specific instruments for various scientific and technological missions. These include communications satellites like Starlink; space stations such as the ISS; scientific satellites like the Hubble; Earth observation satellites from companies like Planet Labs, Umbra, and HawkEye 360; GPS; miniature CubeSats for education and research; and military/defense satellites.

Loading next visibility...
Identifier
64391, 2025-127X
Orbit
LEO
Country
Flag of USUS
Related business
Manufacturer
SpaceX/Seattle
Mission
Operational Commercial Communications
Bus & Motor
STARLINK V2MO, Unknown motor
Mass
575 kg wet, ~530 kg dry
Launch date (UTC)
2025-06-13 (10 months ago)
Launch vehicle
FALCON 9
Launch site
Air Force Eastern Test Range (AFETR)
Object type
Payload
Rocket body
Debris
Shape & HBR
Box + 2 Pan, 17.7 m
Radar Cross Section
36.964 m², Large (>1 m²)

Expand to show TLE details & history
Last TLE update: 12 hours ago

TLE from 12 hours ago
0 STARLINK-34278
1 64391U 25127X   26095.19171100  .00027079  00000-0  98893-3 0  9997
2 64391  43.0023  29.8133 0001313 278.5754  81.4949 15.27613756 46524
Epoch: 2026-04-05T04:36Z
TLE epoch observation values (Epoch: 2026-04-05T04:36:03.830Z)
Latitude
-0.00001°
Longitude
127.29666°
Altitude
482.591 km
Speed
7.626 km/s
True Right ascension
01h 59m 15s
True Declination
0° 00' 00"
Sunlit
Object was in daylight at epoch
Visualization orbit readout
Latitude
Unknown
Longitude
Unknown
Altitude
Unknown
Speed
Unknown
Apparent Right ascension
Unknown
Apparent Declination
Unknown
Sunlit
N/A
Visualization observer readout
Local Sidereal Time
22:15:50
Azimuth
Unknown
Elevation
Unknown
Doppler factor
Unknown
Orbital elements
Apogee altitude
485.794 km
Perigee altitude
483.992 km
Semi-major axis
6,863.03 km
Eccentricity
0.00013
Inclination
43.0023°
RAAN
29.8133°
Arg. of periapsis
278.5754°
True anomaly
81.50978°
Mean anomaly
81.4949°
Eccentric anomaly
81.50234°
Mean motion
3.81741 °/min
Orbital period
94.3 mins
BSTAR
0.00098893
Loading maneuver chart data...
Computing Atmospheric mass density...
Loading historical data...
Loading historical data...
Loading historical data...
Loading historical data...
Loading historical data...
Loading historical data...
Loading historical data...

Documentation

Showing up to 5 results
|